GW1878 Weather Reports


time (UTC)temp
C
wind
direction
speed
KPH
gust
KPH
rain 1hr
cm
rain 24hr
cm
rain mn
cm
humidity
%
barometer
mb
20260506082122 11 229 0.0 0.0 0.00 0.00 0.00 40 1020.7
20260506081621 11 228 0.0 0.0 0.00 0.00 0.00 40 1020.6
20260506081118 11 229 0.0 1.6 0.00 0.00 0.00 40 1020.6
20260506080616 11 227 0.0 0.0 0.00 0.00 0.00 39 1020.7
20260506080112 12 226 0.0 0.0 0.00 0.00 0.00 38 1020.6
20260506073056 12 250 1.6 3.2 0.00 0.00 0.00 36 1020.5
20260506072552 12 266 1.6 8.0 0.00 0.00 0.00 36 1020.3
20260506072051 12 248 0.0 0.0 0.00 0.00 0.00 35 1020.5
20260506071548 12 245 0.0 0.0 0.00 0.00 0.00 35 1020.5
20260506071045 12 253 0.0 3.2 0.00 0.00 0.00 35 1020.5
20260506070542 12 241 0.0 1.6 0.00 0.00 0.00 34 1020.5
20260506062016 13 236 0.0 0.0 0.00 0.00 0.00 32 1020.0
20260506061512 13 236 0.0 0.0 0.00 0.00 0.00 32 1019.9
20260506061010 13 256 0.0 0.0 0.00 0.00 0.00 32 1019.9
20260506060508 13 229 0.0 0.0 0.00 0.00 0.00 32 1019.9
20260506050937 15 223 8.0 11.3 0.00 0.00 0.00 28 1019.5
20260506050435 15 215 0.0 1.6 0.00 0.00 0.00 29 1019.4
20260506044925 15 252 8.0 14.5 0.00 0.00 0.00 29 1019.4
20260506044424 15 258 0.0 0.0 0.00 0.00 0.00 29 1019.4
20260506043920 15 199 4.8 11.3 0.00 0.00 0.00 29 1019.3
20260506043417 15 242 3.2 8.0 0.00 0.00 0.00 30 1019.5
20260506042915 15 279 0.0 1.6 0.00 0.00 0.00 30 1019.5
20260506042414 15 274 0.0 0.0 0.00 0.00 0.00 30 1019.3
20260506041912 15 252 3.2 4.8 0.00 0.00 0.00 29 1019.3
20260506041409 15 266 1.6 3.2 0.00 0.00 0.00 30 1019.2
20260506040907 15 252 0.0 0.0 0.00 0.00 0.00 30 1019.2
20260506040404 15 218 0.0 0.0 0.00 0.00 0.00 31 1019.3
20260506035900 15 268 0.0 0.0 0.00 0.00 0.00 33 1019.2
20260506035357 15 246 0.0 0.0 0.00 0.00 0.00 35 1019.3
20260506034854 15 232 1.6 3.2 0.00 0.00 0.00 35 1019.0
20260506034351 15 235 0.0 1.6 0.00 0.00 0.00 37 1019.1
20260506033848 14 243 0.0 0.0 0.00 0.00 0.00 38 1019.1
20260506033345 15 261 0.0 0.0 0.00 0.00 0.00 38 1019.1
20260506032842 15 253 0.0 0.0 0.00 0.00 0.00 38 1019.0
20260506032339 15 251 0.0 0.0 0.00 0.00 0.00 38 1018.8
20260506031836 15 269 0.0 1.6 0.00 0.00 0.00 37 1018.8
20260506031333 15 251 0.0 0.0 0.00 0.00 0.00 38 1018.7
20260506030831 15 246 0.0 0.0 0.00 0.00 0.00 37 1018.8
20260506030329 15 248 0.0 0.0 0.00 0.00 0.00 36 1018.7
20260506025825 15 263 0.0 0.0 0.00 0.00 0.00 38 1018.7
20260506025321 15 265 0.0 0.0 0.00 0.00 0.00 37 1018.6
20260506024819 15 276 0.0 1.6 0.00 0.00 0.00 37 1018.6
20260506024316 15 246 0.0 0.0 0.00 0.00 0.00 36 1018.5
20260506023812 15 285 6.4 11.3 0.00 0.00 0.00 36 1018.7
20260506023309 15 237 0.0 0.0 0.00 0.00 0.00 36 1018.5
20260506022805 15 215 6.4 12.9 0.00 0.00 0.00 36 1018.4
20260506022305 15 261 0.0 1.6 0.00 0.00 0.00 37 1018.5
20260506021801 15 254 0.0 0.0 0.00 0.00 0.00 36 1018.4
20260506021258 15 260 0.0 0.0 0.00 0.00 0.00 36 1018.5
20260506020754 15 231 0.0 1.6 0.00 0.00 0.00 35 1018.4
20260506020252 16 274 0.0 1.6 0.00 0.00 0.00 35 1018.4
20260506015750 16 238 1.6 9.7 0.00 0.00 0.00 35 1018.4
20260506015247 16 250 6.4 12.9 0.00 0.00 0.00 34 1018.1
20260506014744 16 225 0.0 0.0 0.00 0.00 0.00 35 1018.0
20260506014240 16 236 0.0 0.0 0.00 0.00 0.00 34 1018.0
20260506013737 16 258 0.0 1.6 0.00 0.00 0.00 34 1018.1
20260506013235 17 248 0.0 0.0 0.00 0.00 0.00 33 1018.0
20260506012731 17 237 3.2 4.8 0.00 0.00 0.00 32 1018.1
20260506012228 17 231 1.6 8.0 0.00 0.00 0.00 30 1018.0
20260506011725 17 235 0.0 1.6 0.00 0.00 0.00 31 1018.1
20260506011221 17 243 6.4 12.9 0.00 0.00 0.00 30 1017.9
20260506010720 17 268 3.2 11.3 0.00 0.00 0.00 28 1018.1
20260506010217 17 216 8.0 14.5 0.00 0.00 0.00 31 1018.0
20260506005714 17 215 11.3 17.7 0.00 0.00 0.00 30 1018.1
20260506005211 17 243 1.6 4.8 0.00 0.00 0.00 30 1018.0
20260506004706 17 200 0.0 0.0 0.00 0.00 0.00 29 1018.1
20260506004205 17 252 3.2 8.0 0.00 0.00 0.00 30 1017.8
20260506003700 17 202 4.8 9.7 0.00 0.00 0.00 30 1017.8
20260506003157 17 234 3.2 4.8 0.00 0.00 0.00 30 1018.0
20260506002653 17 248 1.6 4.8 0.00 0.00 0.00 29 1017.8
20260506002149 17 236 3.2 9.7 0.00 0.00 0.00 32 1017.9
20260506001644 17 293 1.6 3.2 0.00 0.00 0.00 37 1018.0
20260506001142 17 232 14.5 24.1 0.00 0.00 0.00 36 1018.0
20260506000639 17 214 0.0 0.0 0.00 0.00 0.00 37 1017.9
20260506000137 17 215 6.4 12.9 0.00 0.00 0.00 36 1018.1
20260505235635 17 242 4.8 9.7 0.00 0.00 0.00 35 1017.9
20260505235132 17 265 0.0 0.0 0.00 0.00 0.00 32 1018.0
20260505234628 17 244 17.7 22.5 0.00 0.00 0.00 32 1017.9
20260505234125 17 216 6.4 14.5 0.00 0.00 0.00 35 1017.9
20260505233623 17 280 8.0 14.5 0.00 0.00 0.00 38 1018.1
20260505233120 17 255 11.3 16.1 0.00 0.00 0.00 38 1018.0
20260505232617 17 245 3.2 4.8 0.00 0.00 0.00 38 1018.1
20260505232115 17 270 11.3 20.9 0.00 0.00 0.00 37 1018.2
20260505231612 17 236 11.3 17.7 0.00 0.00 0.00 37 1018.0
20260505231110 17 269 11.3 12.9 0.00 0.00 0.00 38 1018.0
20260505230608 17 215 4.8 9.7 0.00 0.00 0.00 38 1018.1
20260505230104 17 258 1.6 8.0 0.00 0.00 0.00 38 1018.0
20260505225600 17 232 4.8 8.0 0.00 0.00 0.00 38 1018.2
20260505225056 17 281 4.8 9.7 0.00 0.00 0.00 39 1018.4
20260505224553 16 264 3.2 9.7 0.00 0.00 0.00 40 1018.4
20260505224051 17 238 6.4 11.3 0.00 0.00 0.00 39 1018.6
20260505223548 17 250 3.2 8.0 0.00 0.00 0.00 40 1018.4
20260505223044 17 259 16.1 24.1 0.00 0.00 0.00 39 1018.5
20260505222540 17 233 6.4 12.9 0.00 0.00 0.00 39 1018.5
20260505222037 16 280 17.7 29.0 0.00 0.00 0.00 40 1018.5
20260505221534 16 230 17.7 25.7 0.00 0.00 0.00 40 1018.6
20260505221030 17 246 14.5 16.1 0.00 0.00 0.00 40 1018.8
20260505220528 16 233 1.6 8.0 0.00 0.00 0.00 40 1018.7
20260505220026 16 234 4.8 11.3 0.00 0.00 0.00 41 1019.0
20260505215524 16 218 9.7 14.5 0.00 0.00 0.00 42 1018.8
20260505215021 16 241 6.4 22.5 0.00 0.00 0.00 42 1019.1
20260505214519 16 221 11.3 20.9 0.00 0.00 0.00 43 1019.0
20260505214015 17 237 11.3 17.7 0.00 0.00 0.00 41 1019.3
20260505213513 16 206 12.9 17.7 0.00 0.00 0.00 42 1019.3
20260505213009 17 212 12.9 16.1 0.00 0.00 0.00 41 1019.3
20260505212506 16 259 9.7 14.5 0.00 0.00 0.00 42 1019.4
20260505212003 16 232 11.3 16.1 0.00 0.00 0.00 42 1019.3
20260505211500 16 267 11.3 14.5 0.00 0.00 0.00 43 1020.0
20260505210956 15 224 6.4 9.7 0.00 0.00 0.00 44 1019.8
20260505210453 16 231 0.0 4.8 0.00 0.00 0.00 45 1020.1
20260505205950 15 236 6.4 9.7 0.00 0.00 0.00 45 1020.1
20260505205449 15 218 9.7 12.9 0.00 0.00 0.00 45 1020.0
20260505204945 15 260 1.6 9.7 0.00 0.00 0.00 45 1020.1
20260505204443 15 236 8.0 20.9 0.00 0.00 0.00 46 1020.6
20260505203940 15 233 14.5 24.1 0.00 0.00 0.00 47 1020.4
20260505203437 15 200 14.5 22.5 0.00 0.00 0.00 46 1020.0
20260505202933 15 197 1.6 4.8 0.00 0.00 0.00 47 1020.5
20260505202429 15 239 16.1 20.9 0.00 0.00 0.00 47 1020.3
20260505201926 15 190 14.5 22.5 0.00 0.00 0.00 46 1020.6
20260505201423 15 270 4.8 16.1 0.00 0.00 0.00 47 1020.5
20260505200921 15 254 6.4 14.5 0.00 0.00 0.00 48 1020.6
20260505200418 15 193 3.2 11.3 0.00 0.00 0.00 48 1020.4
20260505195913 14 215 9.7 14.5 0.00 0.00 0.00 48 1020.4
20260505195411 14 257 17.7 24.1 0.00 0.00 0.00 47 1020.5
20260505194908 14 215 11.3 17.7 0.00 0.00 0.00 47 1020.4
20260505194406 14 175 11.3 22.5 0.00 0.00 0.00 46 1020.6
20260505193905 14 238 6.4 9.7 0.00 0.00 0.00 46 1020.4
20260505193404 14 269 9.7 14.5 0.00 0.00 0.00 47 1020.4
20260505192901 13 223 9.7 14.5 0.00 0.00 0.00 48 1020.5
20260505192359 13 229 1.6 8.0 0.00 0.00 0.00 52 1020.5
20260505191856 14 237 6.4 12.9 0.00 0.00 0.00 45 1020.5
20260505191355 14 255 0.0 1.6 0.00 0.00 0.00 44 1020.4
20260505190851 13 222 4.8 11.3 0.00 0.00 0.00 46 1020.4
20260505190347 14 227 1.6 4.8 0.00 0.00 0.00 43 1020.3
20260505185842 14 214 8.0 12.9 0.00 0.00 0.00 44 1020.3
20260505185339 13 219 3.2 9.7 0.00 0.00 0.00 44 1020.4
20260505184835 13 235 9.7 16.1 0.00 0.00 0.00 46 1020.5
20260505184332 13 232 4.8 8.0 0.00 0.00 0.00 48 1020.6
20260505183830 14 249 4.8 11.3 0.00 0.00 0.00 46 1020.6
20260505183326 14 237 11.3 14.5 0.00 0.00 0.00 46 1020.5
20260505182823 14 284 3.2 9.7 0.00 0.00 0.00 45 1020.4
20260505182320 15 196 17.7 25.7 0.00 0.00 0.00 44 1020.3
20260505181817 15 303 8.0 17.7 0.00 0.00 0.00 44 1020.4
20260505181314 15 308 9.7 22.5 0.00 0.00 0.00 43 1020.3
20260505180810 15 259 3.2 9.7 0.00 0.00 0.00 39 1020.3
20260505180307 14 236 6.4 12.9 0.00 0.00 0.00 40 1020.3
20260505175803 14 211 0.0 1.6 0.00 0.00 0.00 40 1020.4
20260505175300 15 217 1.6 8.0 0.00 0.00 0.00 40 1020.6
20260505174756 15 244 0.0 0.0 0.00 0.00 0.00 39 1020.4
20260505174254 14 197 1.6 8.0 0.00 0.00 0.00 39 1020.4
20260505173749 14 237 1.6 4.8 0.00 0.00 0.00 39 1020.5
20260505173246 14 241 0.0 0.0 0.00 0.00 0.00 39 1020.5
20260505172743 14 236 0.0 0.0 0.00 0.00 0.00 39 1020.5
20260505172240 14 254 8.0 12.9 0.00 0.00 0.00 39 1020.4
20260505171740 14 200 0.0 3.2 0.00 0.00 0.00 39 1020.5
20260505171237 14 208 3.2 12.9 0.00 0.00 0.00 39 1020.6
20260505170734 15 252 0.0 0.0 0.00 0.00 0.00 39 1020.5
20260505170231 15 269 0.0 1.6 0.00 0.00 0.00 38 1020.5
20260505165726 15 224 0.0 0.0 0.00 0.00 0.00 37 1020.4
20260505165223 14 266 0.0 0.0 0.00 0.00 0.00 37 1020.3
20260505164718 14 252 12.9 16.1 0.00 0.00 0.00 37 1020.5
20260505164216 14 241 4.8 11.3 0.00 0.00 0.00 37 1020.6
20260505163714 14 227 0.0 0.0 0.00 0.00 0.00 38 1020.1
20260505163212 14 250 0.0 1.6 0.00 0.00 0.00 37 1020.1
20260505162709 14 214 3.2 9.7 0.00 0.00 0.00 37 1020.4
20260505162206 14 296 4.8 16.1 0.00 0.00 0.00 36 1020.6
20260505161703 14 233 4.8 8.0 0.00 0.00 0.00 36 1020.5
20260505161201 14 259 9.7 14.5 0.00 0.00 0.00 36 1020.6
20260505160658 14 250 0.0 0.0 0.00 0.00 0.00 36 1020.6
20260505160155 14 221 1.6 4.8 0.00 0.00 0.00 36 1020.4
20260505153134 14 229 0.0 1.6 0.00 0.00 0.00 39 1020.4
20260505152631 14 230 0.0 0.0 0.00 0.00 0.00 40 1020.1
20260505152127 14 256 0.0 0.0 0.00 0.00 0.00 39 1020.3
20260505151622 14 229 0.0 1.6 0.00 0.00 0.00 39 1020.0
20260505151120 14 235 3.2 3.2 0.00 0.00 0.00 40 1020.0
20260505150616 14 238 0.0 3.2 0.00 0.00 0.00 40 1020.3
20260505150113 14 227 0.0 0.0 0.00 0.00 0.00 40 1020.3
20260505140541 14 234 0.0 3.2 0.00 0.00 0.00 38 1020.4
20260505124955 15 233 0.0 0.0 0.00 0.00 0.00 35 1020.0
20260505124452 15 214 0.0 0.0 0.00 0.00 0.00 34 1020.0
20260505123948 15 227 8.0 20.9 0.00 0.00 0.00 34 1019.9
20260505123444 15 250 0.0 1.6 0.00 0.00 0.00 34 1020.3
20260505122940 15 246 0.0 0.0 0.00 0.00 0.00 34 1020.0
20260505122438 14 221 4.8 9.7 0.00 0.00 0.00 34 1019.8
20260505121935 14 234 0.0 0.0 0.00 0.00 0.00 35 1019.9
20260505121432 14 233 0.0 0.0 0.00 0.00 0.00 35 1019.9
20260505120927 14 234 0.0 0.0 0.00 0.00 0.00 35 1019.8
20260505120424 14 238 0.0 0.0 0.00 0.00 0.00 34 1019.7
20260505115923 15 231 0.0 0.0 0.00 0.00 0.00 34 1019.7
20260505115420 15 253 0.0 0.0 0.00 0.00 0.00 34 1019.7
20260505114918 15 253 0.0 0.0 0.00 0.00 0.00 34 1020.0
20260505114414 15 239 0.0 0.0 0.00 0.00 0.00 35 1019.5
20260505113910 15 236 0.0 0.0 0.00 0.00 0.00 35 1019.8
20260505113407 15 253 0.0 0.0 0.00 0.00 0.00 35 1019.7
20260505112903 15 239 0.0 0.0 0.00 0.00 0.00 34 1019.9
20260505112401 15 265 0.0 0.0 0.00 0.00 0.00 34 1019.9
20260505111856 15 249 0.0 0.0 0.00 0.00 0.00 34 1019.8
20260505111351 15 245 0.0 0.0 0.00 0.00 0.00 34 1020.0
20260505110847 15 246 6.4 9.7 0.00 0.00 0.00 34 1020.0
20260505110345 15 248 4.8 8.0 0.00 0.00 0.00 34 1019.8
20260505101815 15 222 0.0 0.0 0.00 0.00 0.00 33 1019.7
20260505101310 15 221 1.6 4.8 0.00 0.00 0.00 32 1019.7
20260505100806 15 221 0.0 0.0 0.00 0.00 0.00 32 1019.4
20260505100258 15 219 0.0 0.0 0.00 0.00 0.00 32 1019.5
20260505095753 15 217 0.0 0.0 0.00 0.00 0.00 32 1019.7
20260505095251 15 214 0.0 0.0 0.00 0.00 0.00 32 1019.4
20260505094746 15 187 0.0 0.0 0.00 0.00 0.00 34 1019.3
20260505094244 15 134 0.0 0.0 0.00 0.00 0.00 33 1019.7
20260505093739 15 135 0.0 0.0 0.00 0.00 0.00 34 1019.7
20260505093237 15 139 0.0 0.0 0.00 0.00 0.00 34 1019.9
20260505092734 15 128 0.0 0.0 0.00 0.00 0.00 34 1019.8
20260505092233 13 128 0.0 0.0 0.00 0.00 0.00 36 1019.7
20260505091729 15 160 0.0 0.0 0.00 0.00 0.00 36 1020.1
20260505091228 14 160 0.0 0.0 0.00 0.00 0.00 35 1019.9
20260505090725 14 160 0.0 0.0 0.00 0.00 0.00 36 1020.0
20260505090223 15 172 0.0 0.0 0.00 0.00 0.00 36 1020.1
20260505085720 15 176 0.0 0.0 0.00 0.00 0.00 34 1020.0
20260505085218 15 165 0.0 0.0 0.00 0.00 0.00 34 1020.1
20260505084715 14 159 0.0 0.0 0.00 0.00 0.00 35 1020.4
20260505084214 14 158 0.0 0.0 0.00 0.00 0.00 37 1020.3
20260505083710 13 159 0.0 0.0 0.00 0.00 0.00 36 1020.0
20260505083208 14 161 0.0 0.0 0.00 0.00 0.00 37 1020.1
20260505082703 15 161 0.0 0.0 0.00 0.00 0.00 36 1020.4